Tracking 20041 objects as of 22-Nov-2019
Live streaming from Space Station
objects crossing your sky now

SL-8 DEB

Track SL-8 DEB now!
10-day predictions


NORAD ID: 39701
Int'l Code: 1991-009DQ
Perigee: 1,474.2 km
Apogee: 1,685.9 km
Inclination: 74.0 °
Period: 117.6 minutes
Semi major axis: 7951 km
RCS: 0.0255 m2 (small)
Launch date: February 12, 1991
Source: Commonwealth of Independent States (former USSR) (CIS)
Launch site: PLESETSK MISSILE AND SPACE COMPLEX (PKMTR)

Note: This is SATELLITE DEBRIS
aabbcc
Your satellite tracking list
Your tracking list is empty




NASA's NSSDC Master Catalog

Two Line Element Set (TLE):
1 39701U 91009DQ  19323.96427293 -.00000045 +00000-0 -26709-3 0  9997
2 39701 073.9878 179.2119 0133166 035.1487 027.5363 12.24524377268539
Source of the keplerian elements: AFSPC